Location: Cormont
(50.5693°N, 1.7416°E)
Time: 13:23:46
(UTC+00:00)

Cosmos 1758 Rocket - Pass Details

Date: 21 October 2019
Orbit: 603 x 635 km, 82.5° (Epoch: 17 November)

Event Time Altitude Azimuth Distance (km) Brightness Sun altitude
Rises 17:16:08 0° 346° (NNW) 2,924 7.1 -4.9°
Reaches altitude 10° 17:18:24 10° 343° (NNW) 2,017 6.3 -5.3°
Maximum altitude 17:22:47 58° 265° (W) 740 4.4 -6.0°
Drops below altitude 10° 17:27:10 10° 186° (S) 2,014 6.4 -6.6°
Sets 17:29:26 0° 183° (S) 2,919 7.2 -7.0°
